Location: Newark
(48.9320°N, 2.2664°E)
Time: 20:26:38
(UTC+00:00)

Vanguard 1 Rocket - Pass Details

Date: 24 February 2020
Orbit: 650 x 4226 km, 34.3° (Epoch: 09 April)

Event Time Altitude Azimuth Distance (km) Brightness Sun altitude
Rises 03:21:27 0° 243° (WSW) 4,393 - -33.3°
Reaches altitude 10° 03:25:51 10° 226° (SW) 2,881 - -32.7°
Maximum altitude 03:30:03 18° 185° (S) 1,937 - -32.0°
Exits shadow 03:33:17 10° 142° (SE) 2,175 9.5 -31.5°
Drops below altitude 10° 03:33:22 10° 141° (SE) 2,192 9.5 -31.5°
Sets 03:36:06 0° 121° (ESE) 2,984 10.5 -31.1°
